Location: Newark
(36.1358°N, 115.1208°W)
Time: 03:05:05
(UTC+00:00)

ISS - Pass Details

Date: 19 January 2021
Orbit: 417 x 422 km, 51.6° (Epoch: 07 March)

Event Time Altitude Azimuth Distance (km) Brightness Sun altitude
Rises 02:55:41 0° 254° (WSW) 2,362 1.4 -24.5°
Reaches altitude 10° 02:57:59 10° 267° (W) 1,501 0.1 -25.0°
Enters shadow 03:00:12 25° 305° (NW) 905 -1.7 -25.4°
